sat.trackr.live / text

‹ back to catalog

2023-085AJ

NORAD 57036 · 2023-085AJ

PAYLOAD ACTIVE UNKNOWN

§ Identity

Operator
Country
PRC
Launch date
2023-06-15
Launch site
TAISC
Launch vehicle
Mass (kg)
RCS (m²)

External: N2YO · Heavens-Above · Gunter

§ Orbital elements

Epoch: 2026-09-21T20:55:17.783904Z

Period
94.80 min
Inclination
97.4913°
Eccentricity
0.0008021
Mean motion
15.19065210 rev/d
Perigee alt
503.1 km
Apogee alt
514.2 km
Semi-major
6,886.8 km
B*
1.8942e-4
RAAN
9.4742°
Arg perigee
102.7578°
Mean anomaly
257.4553°
Rev number
18,099

§ Raw data

2023-085AJ1 57036U 23085AJ  26264.87173361  .00003905  00000+0  18942-3 0  99982 57036  97.4913   9.4742 0008021 102.7578 257.4553 15.19065210180991

JSON: /api/v1/satellites/57036 · /tle

For live sub-satellite position, see the globe view (requires WebGL).

§ Visibility from observer

Set your observer location to see the next 7 days of passes ≥ 10°. The values pass through the URL so the page stays shareable.

No JS? Fill the form by hand. The geolocation button needs JavaScript.